Tracking 27401 objects as of 3-Jun-2023
HD Live streaming from Space Station
objects crossing your sky now

THOR ABLESTAR DEB

Track THOR ABLESTAR DEB now!
10-day predictions


NORAD ID: 4028
Int'l Code: 1961-015JQ
Perigee: 645.5 km
Apogee: 783.3 km
Inclination: 66.8 °
Period: 98.9 minutes
Semi major axis: 7085 km
RCS: 0.0031 m2 (small)
Launch date: June 29, 1961
Source: United States (US)
Launch site: AIR FORCE EASTERN TEST RANGE (AFETR)

Note: This is SATELLITE DEBRIS
Your satellite tracking list
Your tracking list is empty




NASA's NSSDC Master Catalog

Two Line Element Set (TLE):
1 04028U 61015JQ  23153.75218387  .00001505  00000-0  34513-3 0  9992
2 04028  66.7514 139.6798 0097208 133.4895 227.4351 14.55648742211775
Source of the keplerian elements: AFSPC